Waarnemingen

Advertentie
Mijn weer
Schaffen, België (6465): temperatuur & dauwpunt: 15.06.2018 02:00:00 - 21.06.2018 02:00:00 (CEST)Schaffen, België (6465): windsnelheid & windstoten: 15.06.2018 02:00:00 - 21.06.2018 02:00:00 (CEST)Schaffen, België (6465): windrichting: 15.06.2018 02:00:00 - 21.06.2018 02:00:00 (CEST)Schaffen, België (6465): luchtdruk: 15.06.2018 02:00:00 - 21.06.2018 02:00:00 (CEST)Schaffen, België (6465): zicht: 15.06.2018 02:00:00 - 21.06.2018 02:00:00 (CEST)
Datum & Tijd tt [°C] td [°C] ff [km/u] ff [kn] fx [km/u] fx [kn] dd ppp [hPa] vv [km]
21.06.2018 02:00:00 17,9 13,6 7 4 - - WZW 1017,5 20
21.06.2018 01:00:00 19,6 13,7 14 8 22 12 W 1018,0 20
21.06.2018 00:00:00 19,3 14,5 7 4 11 6 WZW 1018,0 20
20.06.2018 23:00:00 20,7 14,5 4 2 - - N 1018,5 20
20.06.2018 22:00:00 22,0 14,1 7 4 18 10 W 1018,2 20
20.06.2018 21:00:00 24,2 13,6 11 6 18 10 W 1018,2 20
20.06.2018 20:00:00 25,7 14,8 11 6 - - WNW 1018,3 20
20.06.2018 19:00:00 25,8 13,7 11 6 25 14 W 1018,7 20
20.06.2018 18:00:00 27,1 14,5 11 6 25 14 W 1019,1 20
20.06.2018 17:00:00 26,9 14,9 7 4 - - W 1019,6 20
20.06.2018 16:00:00 25,6 13,9 11 6 25 14 W 1020,0 20
20.06.2018 15:00:00 25,6 14,4 11 6 22 12 WZW 1020,5 20
20.06.2018 14:00:00 24,9 15,5 11 6 - - W 1021,1 20
20.06.2018 13:00:00 22,8 15,2 11 6 22 12 ZW 1021,7 20
20.06.2018 12:00:00 21,0 15,2 11 6 18 10 WZW 1022,3 20
20.06.2018 11:00:00 20,4 15,5 7 4 - - ZW 1022,7 20
20.06.2018 10:00:00 18,7 14,9 11 6 18 10 WZW 1022,8 20
20.06.2018 09:00:00 18,3 14,5 11 6 22 12 ZZW 1022,7 20
20.06.2018 08:00:00 17,7 14,4 11 6 - - ZW 1022,8 20
20.06.2018 07:00:00 17,3 14,2 7 4 22 12 ZW 1022,8 20
20.06.2018 06:00:00 17,2 13,9 11 6 18 10 ZW 1022,8 20
20.06.2018 05:00:00 17,2 14,1 7 4 - - ZW 1023,1 20
20.06.2018 04:00:00 16,8 14,9 4 2 11 6 N 1023,5 20
20.06.2018 03:00:00 17,7 15,5 4 2 7 4 N 1023,7 20
20.06.2018 02:00:00 17,8 16,0 4 2 - - N 1024,0 20
20.06.2018 01:00:00 18,1 16,0 4 2 7 4 N 1024,4 20
20.06.2018 00:00:00 18,1 15,8 4 2 11 6 N 1024,7 20
19.06.2018 23:00:00 19,0 15,7 4 2 - - N 1024,5 20
19.06.2018 22:00:00 19,3 15,6 4 2 7 4 N 1024,2 16
19.06.2018 21:00:00 19,5 15,4 4 2 11 6 N 1024,0 20
19.06.2018 20:00:00 19,8 15,3 7 4 - - WZW 1024,2 20
19.06.2018 19:00:00 19,8 15,4 7 4 14 8 WZW 1024,5 20
19.06.2018 18:00:00 20,1 15,5 7 4 18 10 ZW 1024,5 20
19.06.2018 17:00:00 20,9 15,4 11 6 - - WZW 1024,7 20
19.06.2018 16:00:00 20,3 15,7 11 6 18 10 W 1024,9 20
19.06.2018 15:00:00 - - - - - - - - -
19.06.2018 14:00:00 - - - - - - - - -
19.06.2018 13:00:00 19,2 15,9 11 6 18 10 WZW 1025,0 20
19.06.2018 12:00:00 18,0 15,8 7 4 22 12 WZW 1024,7 13
19.06.2018 11:00:00 17,3 15,7 14 8 - - WZW 1024,7 7
19.06.2018 10:00:00 17,4 15,1 11 6 25 14 WZW 1024,4 20
19.06.2018 09:00:00 17,2 14,9 7 4 18 10 ZW 1023,8 20
19.06.2018 08:00:00 16,4 14,5 7 4 - - N 1023,5 20
19.06.2018 07:00:00 15,6 13,8 4 2 14 8 N 1023,2 20
19.06.2018 06:00:00 14,8 13,2 9 5 14 8 ZZW 1023,2 10
19.06.2018 05:00:00 14,1 12,4 7 4 - - ZW 1022,7 20
19.06.2018 04:00:00 13,7 11,8 7 4 14 8 ZZW 1022,5 20
19.06.2018 03:00:00 14,1 11,2 7 4 14 8 ZZW 1022,2 20
19.06.2018 02:00:00 14,6 11,2 7 4 - - ZW 1022,0 20
19.06.2018 01:00:00 14,8 11,7 7 4 14 8 N 1022,2 20
19.06.2018 00:00:00 14,8 11,6 7 4 7 4 WZW 1022,2 20
18.06.2018 23:00:00 16,0 11,6 4 2 - - N 1022,2 20
18.06.2018 22:00:00 17,2 12,2 11 6 22 12 W 1021,7 20
18.06.2018 21:00:00 19,2 12,4 14 8 29 16 WZW 1021,0 20
18.06.2018 20:00:00 20,2 12,2 14 8 - - WZW 1020,8 20
18.06.2018 19:00:00 19,5 12,6 14 8 29 16 WZW 1020,7 20
18.06.2018 18:00:00 19,8 13,2 18 10 36 19 W 1020,8 20
18.06.2018 17:00:00 21,1 14,3 14 8 - - W 1020,8 20
18.06.2018 16:00:00 21,2 14,8 14 8 36 19 ZW 1020,8 20
18.06.2018 15:00:00 20,3 15,5 14 8 29 16 WZW 1020,7 20
18.06.2018 14:00:00 18,7 14,8 18 10 - - WZW 1021,2 18
18.06.2018 13:00:00 18,3 14,8 18 10 32 18 WZW 1021,2 18
18.06.2018 12:00:00 17,4 15,0 22 12 18 10 ZW 1021,0 15
18.06.2018 11:00:00 18,3 13,8 14 8 - - ZZW 1020,2 15
18.06.2018 10:00:00 18,3 13,8 14 8 25 14 ZZW 1020,2 15
18.06.2018 09:00:00 17,1 13,4 11 6 25 14 ZW 1020,2 15
18.06.2018 08:00:00 16,2 12,9 14 8 - - ZW 1020,1 15
18.06.2018 07:00:00 16,1 11,7 7 4 18 10 ZZW 1020,1 15
18.06.2018 06:00:00 15,6 11,7 11 6 18 10 Z 1019,8 15
18.06.2018 05:00:00 15,6 11,4 4 2 - - N 1019,7 20
18.06.2018 04:00:00 15,6 11,2 7 4 11 6 ZZW 1019,8 20
18.06.2018 03:00:00 15,6 10,9 4 2 11 6 N 1019,8 20
18.06.2018 02:00:00 15,8 10,2 4 2 - - N 1020,2 20
18.06.2018 01:00:00 16,0 9,8 4 2 11 6 - 1020,3 20
18.06.2018 00:00:00 16,1 9,5 7 4 11 6 N 1020,3 20
17.06.2018 23:00:00 16,0 9,1 4 2 - - N 1020,2 20
17.06.2018 22:00:00 16,6 8,8 7 4 29 16 WZW 1020,1 20
17.06.2018 21:00:00 17,5 8,1 14 8 25 14 WZW 1019,7 20
17.06.2018 20:00:00 18,0 9,8 7 4 - - WZW 1019,2 20
17.06.2018 19:00:00 17,5 9,5 7 4 22 12 ZW 1019,2 20
17.06.2018 18:00:00 17,9 9,7 11 6 29 16 WZW 1019,2 19
17.06.2018 17:00:00 17,4 9,4 14 8 - - ZW 1019,2 20
17.06.2018 16:00:00 16,6 9,8 11 6 29 16 ZW 1019,3 20
17.06.2018 15:00:00 16,6 8,4 18 10 29 16 WZW 1019,2 20
17.06.2018 14:00:00 16,6 8,9 18 10 - - WZW 1018,8 20
17.06.2018 13:00:00 16,3 9,2 11 6 29 16 WZW 1018,7 20
17.06.2018 12:00:00 16,4 8,7 14 8 32 18 WZW 1018,3 20
17.06.2018 11:00:00 17,0 9,7 11 6 - - WZW 1018,3 20
17.06.2018 10:00:00 15,7 9,4 14 8 25 14 ZW 1018,1 19
17.06.2018 09:00:00 15,5 10,3 14 8 29 16 ZW 1017,7 20
17.06.2018 08:00:00 14,9 10,1 11 6 - - ZW 1017,2 19
17.06.2018 07:00:00 14,1 10,4 11 6 18 10 ZZW 1017,0 20
17.06.2018 06:00:00 13,8 10,1 7 4 14 8 ZW 1017,0 20
17.06.2018 05:00:00 14,0 10,1 4 2 - - N 1016,8 20
17.06.2018 04:00:00 14,5 9,8 4 2 14 8 N 1016,6 20
17.06.2018 03:00:00 15,2 9,5 7 4 11 6 ZW 1016,7 20
17.06.2018 02:00:00 15,2 9,1 7 4 - - ZW 1016,5 20
17.06.2018 01:00:00 14,3 8,7 4 2 11 6 N 1016,7 20
17.06.2018 00:00:00 15,3 8,6 4 2 11 6 N 1016,7 20
16.06.2018 23:00:00 15,8 8,4 7 4 - - W 1016,5 20
16.06.2018 22:00:00 17,6 8,8 7 4 22 12 W 1016,1 20
16.06.2018 21:00:00 18,8 9,3 11 6 29 16 W 1015,6 20
16.06.2018 20:00:00 19,6 10,4 14 8 - - W 1015,3 20
16.06.2018 19:00:00 20,2 10,9 14 8 29 16 WZW 1015,1 20
16.06.2018 18:00:00 20,2 11,0 14 8 25 14 W 1015,0 20
16.06.2018 17:00:00 20,8 11,3 11 6 - - W 1014,8 20
16.06.2018 16:00:00 21,4 10,6 7 4 22 12 ZW 1014,7 20
16.06.2018 15:00:00 22,4 10,7 11 6 22 12 ZW 1014,7 20
16.06.2018 14:00:00 22,2 10,8 7 4 - - ZW 1015,0 20
16.06.2018 13:00:00 21,2 11,0 11 6 22 12 ZW 1015,7 20
16.06.2018 12:00:00 19,9 11,5 11 6 22 12 ZW 1016,1 20
16.06.2018 11:00:00 19,0 11,2 7 4 - - ZW 1016,1 20
16.06.2018 10:00:00 17,5 9,8 7 4 14 8 Z 1016,0 20
16.06.2018 09:00:00 15,6 9,2 7 4 18 10 WZW 1016,3 20
16.06.2018 08:00:00 15,0 11,3 4 2 - - N 1016,2 15
16.06.2018 07:00:00 13,8 11,2 4 2 7 4 N 1016,1 12
16.06.2018 06:00:00 13,1 11,3 4 2 7 4 N 1015,7 9
16.06.2018 05:00:00 13,5 12,2 4 2 - - N 1015,8 8
16.06.2018 04:00:00 14,0 12,3 7 4 14 8 WZW 1016,1 7
16.06.2018 03:00:00 14,6 12,6 11 6 14 8 WZW 1016,2 9
16.06.2018 02:00:00 15,1 12,9 11 6 - - W 1016,2 9
16.06.2018 01:00:00 15,7 12,8 7 4 18 10 WNW 1016,1 11
16.06.2018 00:00:00 17,2 13,5 11 6 18 10 WNW 1016,1 12
15.06.2018 23:00:00 18,8 13,1 11 6 - - W 1015,8 19
15.06.2018 22:00:00 20,0 12,5 7 4 7 4 Z 1015,6 20
15.06.2018 21:00:00 21,2 12,5 4 2 7 4 N 1015,7 20
15.06.2018 20:00:00 22,6 11,8 4 2 - - N 1015,8 20
15.06.2018 19:00:00 23,1 11,2 4 2 14 8 - 1016,0 10
15.06.2018 18:00:00 22,5 10,4 7 4 14 8 ZW 1016,0 20
15.06.2018 17:00:00 23,0 10,6 4 2 - - N 1016,1 20
15.06.2018 16:00:00 23,1 11,2 7 4 14 8 N 1016,6 20
15.06.2018 15:00:00 22,6 10,3 4 2 22 12 N 1016,7 20
15.06.2018 14:00:00 21,3 11,0 4 2 - - N 1016,8 18
15.06.2018 13:00:00 20,2 11,0 4 2 14 8 N 1017,2 18
15.06.2018 12:00:00 19,2 12,6 4 2 22 12 N 1017,2 18
15.06.2018 11:00:00 - - - - - - - - -
15.06.2018 10:00:00 17,6 12,2 8 4 11 6 ZZO 1017,2 10
15.06.2018 09:00:00 15,8 12,6 7 4 11 6 N 1017,2 11
15.06.2018 08:00:00 14,1 12,3 4 2 - - - 1017,1 8
15.06.2018 07:00:00 13,5 13,1 4 2 11 6 N 1016,7 6
15.06.2018 06:00:00 13,0 13,0 8 4 - - ZW - 4,0
15.06.2018 05:00:00 13,4 13,2 4 2 - - N 1016,2 2,8
15.06.2018 04:00:00 14,1 13,6 4 2 7 4 - 1016,2 4,0
15.06.2018 03:00:00 14,6 13,8 4 2 7 4 N 1016,5 6
15.06.2018 02:00:00 15,0 14,1 4 2 - - N 1016,6 10

tt = temperatuur
td = dauwpunt
ff = windsnelheid
fx = windstoten
dd = windrichting
ppp = luchtdruk
vv = zicht

Weerstations in de omgeving